Flag for U.S.A. Weather past 2 weeks in Los Angeles, California, U.S.A.

Now
67 °F

Overcast.


Feels Like: 67 °F
Forecast: 59 / 78 °F
Wind: No wind

Location: Los Angeles / USC Campus Downtown

Current Time: Oct 21, 2014 at 5:39:01 AM

Latest Report: Oct 21, 2014 at 4:47 AM


Visibility: 8 mi

Pressure: 29.88 "Hg

Humidity: 79%

Dew point: 60 °F

Location of Los AngelesLocation

Historic Weather in Los Angeles — Graph

°F

Los Angeles temperature yesterday

Maximum temperature yesterday: 78 °F (at 1:47 PM)
Minimum temperature yesterday: 63 °F (at 5:00 AM)
Average temperature yesterday: 69 °F

Past Weeks' High & Low Weather Summary

 TemperatureHumidityPressure
High92 °F (Oct 7, 1:47 PM)90% (Oct 7, 12:47 AM)30.01 "Hg (Oct 7, 12:47 AM)
Low61 °F (Oct 16, 6:47 AM)14% (Oct 6, 12:47 PM)29.79 "Hg (Oct 8, 3:47 PM)
Average70 °F70%29.91 "Hg
* Reported Oct 6 3:47 AM — Oct 21 3:47 AM, Los Angeles, Weather by CustomWeather, © 2014

Note: Actual official high and low records may vary slightly from our data, if they occured in-between our weather recording intervals... More about our weather records

Advertising

Los Angeles weather history for previous 24 hours

 ConditionsComfort  
Time TempWeatherWind HumidityBarometerVisibility
3:47 AM
Oct 21
67 °FOvercast.No wind79%29.88 "Hg9 mi
2:47 AM68 °FOvercast.No wind78%29.88 "Hg10 mi
1:47 AM67 °FOvercast.No wind81%29.89 "Hg10 mi
12:47 AM67 °FOvercast.No wind85%29.90 "Hg10 mi
11:47 PM
Oct 20
67 °FPassing clouds.No wind81%29.89 "Hg10 mi
10:47 PM67 °FClear.No wind81%29.89 "Hg10 mi
9:47 PM67 °FClear.No wind81%29.89 "Hg10 mi
8:47 PM67 °FClear.No wind81%29.88 "Hg10 mi
7:47 PM68 °FClear.No wind78%29.88 "Hg10 mi
6:47 PM69 °FSunny.3 mph76%29.87 "Hg10 mi
5:47 PM70 °FSunny.5 mph71%29.85 "Hg10 mi
4:47 PM72 °FSunny.6 mph66%29.85 "Hg10 mi
3:47 PM75 °FSunny.6 mph60%29.86 "Hg10 mi
2:47 PM76 °FSunny.9 mph60%29.86 "Hg10 mi
1:47 PM78 °FSunny.No wind54%29.87 "Hg9 mi
12:47 PM76 °FSunny.No wind58%29.89 "Hg8 mi
11:47 AM73 °FPassing clouds.5 mph64%29.93 "Hg7 mi
10:47 AM70 °FOvercast.No wind68%29.94 "Hg6 mi
9:47 AM68 °FOvercast.No wind76%29.94 "Hg6 mi
8:47 AM67 °FOvercast.No wind79%29.93 "Hg8 mi
7:47 AM67 °FOvercast.No wind79%29.90 "Hg9 mi
6:47 AM66 °FOvercast.No wind81%29.90 "Hg10 mi
5:47 AM64 °FOvercast.No wind87%29.89 "Hg10 mi
5:00 AM63 °FPassing clouds.No wind87%29.88 "Hg9 mi
Weather by CustomWeather, © 2014

See weather overviewHow to use our weather pages